Wind_Speed
21 21 21 21 21 20 20 20 21 21 22 21 21 20 20 19 19 18 18 18 17 16 16 15 14 13 12 12 11 9 7 5 5 5 4 3 2 2 1 2 1 1 1 0 1 3 4 5 6 7 7 8 10 12 12 12 13 13 12 14 17 18 17 18 18 19 18 18 17 16 14 12 11 10 7 4 1 1 3 7 8 7 7 6 6 5 4 6
22 22 22 22 22 22 22 22 21 21 21 22 22 22 21 21 20 20 19 19 18 17 17 17 16 15 14 13 12 11 9 7 6 6 5 5 4 3 2 3 2 2 2 2 2 1 2 3 4 6 7 8 9 10 10 12 14 12 12 14 16 16 17 17 18 18 18 18 17 16 15 13 12 10 6 4 2 1 4 7 6 6 8 6 4 4 4 5
22 22 22 22 22 23 23 23 23 23 22 22 22 23 23 22 21 21 20 20 19 18 18 18 17 17 15 14 13 12 10 9 8 7 7 6 6 5 3 3 4 4 4 4 3 2 1 1 3 5 6 7 8 9 10 12 13 12 13 14 15 15 15 17 17 17 17 17 17 17 17 15 13 10 7 6 4 1 2 6 8 6 7 6 3 3 3 4
23 22 22 22 22 22 23 23 24 24 24 23 22 23 23 23 23 22 21 20 20 19 19 18 18 17 17 15 14 13 12 11 9 8 8 8 7 7 6 5 5 6 6 5 5 3 3 1 2 4 6 6 7 9 10 12 12 12 12 13 13 14 14 16 16 15 16 17 18 18 18 16 14 11 9 7 5 4 4 6 8 5 5 6 3 2 3 3
23 23 23 22 22 22 22 23 23 24 25 24 24 23 23 23 24 23 22 21 20 20 20 20 19 18 18 17 16 15 13 13 11 9 10 9 9 9 8 8 7 7 8 7 6 5 4 1 1 2 5 6 6 9 10 11 12 11 11 11 12 12 13 14 14 14 15 16 18 18 17 16 14 13 12 8 5 5 5 4 4 2 4 5 3 2 2 3
24 24 23 23 23 22 22 22 22 23 24 25 25 24 24 23 23 24 24 22 21 20 20 20 20 20 19 18 17 15 15 15 13 11 11 11 11 10 10 10 9 9 10 9 8 6 4 2 1 2 3 4 6 8 9 10 10 9 10 11 12 12 12 12 13 14 14 15 17 17 16 16 16 14 12 9 6 5 4 3 1 1 2 4 3 3 3 4
25 25 25 24 24 23 23 22 22 23 23 24 25 25 25 24 23 23 24 24 23 21 20 20 20 20 20 19 18 17 17 16 14 13 13 13 13 12 11 12 10 10 12 11 9 8 5 3 2 2 3 4 6 8 8 9 9 8 9 11 11 12 12 11 12 13 14 15 15 16 16 17 18 15 13 12 9 7 5 3 1 1 0 3 3 3 3 3
27 27 26 26 25 24 24 23 23 22 23 23 24 25 25 25 24 23 24 24 24 23 21 20 20 19 20 19 19 19 18 17 16 15 15 14 13 12 11 12 11 12 13 12 10 9 6 4 3 1 2 3 5 7 8 9 9 8 9 10 11 10 10 11 12 13 14 14 14 14 15 16 17 15 15 15 12 8 6 3 1 2 1 2 3 3 2 3
28 28 27 27 26 25 25 24 23 23 22 23 23 24 25 25 25 24 23 23 24 24 23 22 20 19 19 19 19 18 17 17 16 15 14 14 12 10 11 12 11 12 14 13 12 10 8 6 4 2 1 3 5 6 7 8 8 9 9 10 11 10 10 12 13 13 14 13 13 13 14 15 15 15 15 16 15 10 7 5 3 3 2 1 2 3 2 3
30 29 29 28 27 26 26 25 24 23 23 22 23 23 24 25 25 25 24 23 24 24 25 24 22 21 19 19 19 17 16 17 15 14 13 12 11 10 11 12 12 14 15 14 13 12 9 6 5 3 1 2 4 5 6 7 7 9 10 11 11 10 11 13 13 13 13 13 13 13 13 13 13 15 16 18 17 12 9 8 6 4 2 1 2 2 3 4
32 31 30 30 29 28 27 26 25 24 23 22 22 22 23 24 24 25 24 24 24 24 25 24 24 22 21 20 18 15 16 16 15 14 13 12 11 10 11 12 13 14 15 15 14 12 9 7 5 3 1 1 3 4 5 6 7 9 11 11 11 11 11 12 12 11 12 13 13 12 12 11 11 13 15 18 17 14 13 11 8 6 3 2 2 3 4 5
33 33 32 31 30 29 28 27 26 25 24 23 22 22 22 23 24 24 25 24 24 24 24 25 25 23 22 21 17 16 17 16 15 15 13 12 10 10 11 12 14 15 16 16 15 12 10 8 6 4 2 1 2 3 4 5 7 9 10 11 11 10 11 12 12 11 10 10 10 10 10 10 10 10 12 15 16 15 13 12 9 6 4 3 3 4 5 6
34 34 33 32 31 31 30 28 27 26 24 23 23 22 22 22 23 24 24 24 24 24 24 25 25 24 24 20 17 19 18 16 16 15 13 13 11 11 11 12 15 16 16 17 15 12 11 9 8 6 4 2 1 2 3 5 6 8 8 10 11 9 9 12 13 12 10 9 10 9 9 10 11 10 11 12 14 14 13 13 11 8 5 4 4 5 6 6
33 33 33 32 32 31 31 29 28 27 25 24 23 22 22 22 22 23 24 24 24 24 24 25 25 25 24 19 19 21 18 16 16 14 14 14 12 12 12 13 15 17 17 17 15 14 12 11 9 7 5 3 1 1 2 4 6 7 7 8 9 9 9 12 13 12 12 11 11 10 9 11 11 10 11 12 13 13 12 12 12 11 7 5 6 6 7 7
33 33 33 32 31 31 31 30 29 27 26 25 24 23 22 22 22 23 24 24 24 24 24 24 24 25 24 22 22 21 18 18 16 14 15 14 14 13 13 13 15 17 18 17 16 15 14 12 10 8 6 4 2 2 3 5 7 7 8 10 10 9 10 11 12 12 12 12 11 10 11 12 10 10 11 11 13 13 11 11 12 13 10 6 6 7 8 9
33 33 33 32 31 31 30 30 28 28 27 26 24 24 23 22 22 23 23 24 24 24 24 24 24 25 24 22 22 21 19 18 15 14 15 15 15 14 13 14 15 17 17 17 16 15 14 13 11 10 8 6 4 4 5 6 8 8 7 10 12 10 9 10 12 11 11 11 9 10 10 10 9 10 11 12 13 14 12 10 11 13 13 9 7 8 9 10
32 33 33 33 32 31 30 29 28 27 27 26 25 24 23 23 23 23 23 23 24 24 24 24 24 24 24 22 23 23 21 18 16 16 15 15 15 15 15 15 17 18 17 17 16 15 14 13 12 11 9 7 6 6 6 6 7 8 7 8 11 10 9 11 13 12 11 11 9 9 10 10 11 12 12 13 15 16 14 11 12 13 14 11 6 9 8 10
31 32 32 33 32 31 31 29 28 27 27 27 25 25 24 23 23 23 23 23 24 23 23 24 24 25 25 25 26 24 20 18 18 17 16 16 16 16 16 16 18 19 19 18 16 15 14 14 13 11 9 8 8 8 7 7 7 8 8 9 9 10 10 11 13 12 12 12 9 8 10 11 13 13 12 13 15 16 16 13 12 12 13 11 3 8 8 9
29 31 32 32 32 31 31 29 28 27 27 27 26 25 24 24 24 23 23 23 23 23 23 24 24 25 24 24 25 22 19 20 20 18 17 17 17 17 17 17 18 19 19 18 17 16 15 14 13 12 11 10 10 9 8 8 7 8 8 9 9 10 11 11 12 12 11 12 12 11 11 11 13 14 12 11 12 14 16 14 12 12 13 13 5 5 7 8
26 28 30 31 31 31 31 29 28 27 28 27 26 26 25 24 24 23 23 22 23 23 24 24 25 25 24 23 23 21 23 25 23 20 18 18 18 18 18 18 19 19 19 19 18 17 16 15 15 14 13 12 12 10 8 9 9 9 9 9 10 9 10 11 12 11 10 10 12 13 12 11 13 12 11 11 11 12 14 15 13 13 14 14 8 1 7 7
24 26 28 29 30 30 30 29 28 27 28 27 26 25 25 24 23 22 22 23 23 23 24 24 25 25 23 23 23 23 25 26 24 21 20 19 19 19 20 20 20 19 19 19 18 17 16 16 15 15 15 15 13 9 9 11 10 10 10 10 10 9 11 12 10 10 10 9 11 14 13 12 14 13 11 11 11 12 13 13 13 13 12 12 10 3 7 8
23 24 25 27 28 29 29 28 27 27 28 27 26 25 24 23 23 23 23 23 22 23 23 23 24 24 23 24 25 25 25 25 25 23 22 22 22 21 21 21 20 20 20 19 18 17 16 15 15 15 18 16 12 10 12 12 12 13 12 10 9 9 9 9 10 10 9 8 10 14 14 13 15 16 13 10 9 11 12 12 11 11 10 10 10 7 4 7
21 21 23 24 26 27 27 26 26 27 27 26 24 24 23 22 22 22 22 22 22 23 23 23 23 23 23 24 25 24 24 25 26 26 25 24 23 22 21 20 21 21 20 19 18 17 14 15 17 19 19 15 12 13 15 13 14 15 13 11 10 8 8 8 9 11 7 7 9 13 15 14 16 17 15 12 10 8 9 10 10 10 10 9 8 8 5 4
17 17 19 21 24 25 25 25 26 26 25 24 23 22 22 21 21 21 21 21 21 21 22 23 23 23 23 23 23 23 24 24 24 26 27 26 24 22 21 21 22 22 21 20 19 18 18 19 21 22 18 14 15 17 16 14 16 17 15 14 10 6 8 6 10 10 6 7 9 12 15 16 16 17 17 17 15 11 7 8 9 7 9 10 8 9 6 3
12 12 15 18 20 21 22 23 24 24 23 22 21 21 20 20 20 20 19 19 20 21 21 22 22 22 21 21 23 24 23 23 23 25 26 26 25 24 23 24 23 22 22 21 21 22 23 22 22 22 17 15 17 18 17 17 18 16 15 14 13 13 13 9 9 9 6 7 10 12 14 17 15 13 16 18 19 18 11 8 8 6 8 11 9 9 7 5
10 10 12 14 17 18 20 21 21 21 20 19 19 19 19 19 19 18 18 18 19 20 20 20 20 20 20 21 23 21 21 23 23 23 24 25 26 25 25 25 24 24 24 25 24 23 24 25 24 22 19 18 18 18 19 19 17 11 9 10 11 14 16 11 7 8 8 9 12 10 12 17 16 11 14 17 18 19 15 12 12 9 8 10 9 9 8 7
10 10 11 12 15 16 18 18 18 18 18 17 18 18 18 18 17 17 16 14 15 16 18 19 18 19 20 21 21 21 23 24 22 22 24 25 26 26 26 26 26 27 27 26 25 24 25 26 25 24 23 20 19 19 18 20 17 10 8 11 12 11 11 11 10 8 8 10 11 9 11 16 17 13 15 17 17 18 16 13 14 13 10 10 9 8 7 6
10 11 11 12 14 15 15 16 16 16 16 16 17 17 17 17 16 15 14 13 13 13 15 17 17 18 20 20 21 24 23 20 20 23 24 24 25 25 26 27 27 28 29 27 24 24 26 26 26 28 25 21 20 19 18 21 19 14 10 10 10 11 9 9 11 8 8 10 10 9 10 14 17 15 15 17 17 15 12 10 12 14 13 10 9 6 4 4
10 10 12 12 13 14 14 16 16 16 17 18 17 16 16 16 15 14 14 14 13 11 12 15 17 19 19 20 21 21 19 17 20 21 21 22 23 24 25 25 25 28 27 25 24 25 27 27 27 28 25 21 19 18 21 22 18 19 16 8 5 7 8 9 10 9 9 11 10 8 8 14 18 16 15 18 16 10 7 8 10 12 11 11 9 6 4 5
9 10 11 13 13 13 14 16 17 17 18 18 17 16 15 14 14 13 11 11 13 12 11 12 16 18 17 18 19 18 19 20 19 16 17 21 22 23 24 21 21 25 23 22 25 28 28 24 21 21 18 17 19 20 21 19 16 19 17 10 7 7 6 7 8 10 11 10 9 9 9 14 19 18 15 16 13 7 6 7 9 10 9 10 10 8 7 7
8 9 11 12 13 14 16 17 18 18 18 17 16 16 15 14 13 14 10 10 12 12 13 14 14 16 17 17 17 17 20 20 17 17 19 20 20 21 22 21 20 22 21 20 22 25 25 19 16 16 16 19 23 21 14 10 14 18 13 9 8 3 5 7 9 11 11 9 8 8 10 14 17 18 14 14 13 10 7 6 8 9 9 10 11 10 8 7
8 8 10 12 14 15 17 19 19 19 17 17 16 15 15 14 15 14 10 10 9 8 13 16 13 14 17 16 16 17 18 17 17 18 18 18 20 20 20 20 20 18 17 16 19 23 23 19 17 17 18 19 20 19 15 11 13 16 13 11 6 2 7 10 10 12 11 11 11 8 11 15 16 16 14 15 16 11 6 6 8 8 8 8 9 9 8 6
7 7 9 13 15 16 18 19 19 19 17 17 16 16 15 14 15 13 5 3 4 7 10 14 13 14 15 15 16 16 16 16 17 18 17 17 18 19 19 20 20 17 14 13 15 15 16 17 18 17 18 19 17 16 13 7 9 12 12 12 8 4 8 9 9 14 11 10 11 9 12 15 16 15 14 17 18 13 8 7 9 8 7 6 7 8 6 4
7 7 9 13 16 17 18 19 19 19 18 17 17 16 15 15 15 12 6 5 7 11 9 10 12 12 12 13 14 14 13 14 15 15 16 16 17 17 19 19 18 17 15 12 10 6 12 16 16 14 16 18 15 14 13 9 6 10 10 11 7 2 8 9 12 14 8 7 11 11 12 14 13 13 14 17 19 16 11 8 8 8 6 5 5 5 5 3
6 8 9 12 16 18 18 19 19 19 18 17 17 16 17 15 11 9 7 5 8 9 8 8 9 10 10 10 11 12 12 11 12 14 13 13 15 15 17 17 16 18 16 9 6 6 6 13 18 16 17 18 14 15 21 18 8 5 7 5 3 3 10 9 13 14 8 6 11 10 10 11 10 11 14 17 18 17 13 9 8 7 5 4 3 3 4 4
7 8 10 12 16 17 18 18 18 18 17 17 18 18 19 16 11 12 10 7 7 6 7 7 9 9 9 9 9 10 11 9 10 12 11 12 14 15 15 16 17 17 15 10 6 6 4 9 18 19 20 17 15 20 25 19 10 8 7 4 8 9 9 9 14 18 12 8 11 10 10 12 10 9 10 13 15 14 12 9 6 6 6 6 5 1 2 4
8 9 11 13 15 17 18 18 17 18 17 17 17 18 20 18 14 14 11 4 5 7 8 6 6 7 9 10 9 8 9 9 8 9 11 10 10 13 14 15 17 15 17 18 12 13 13 8 15 17 19 17 14 20 24 17 10 9 8 11 21 13 6 13 20 18 13 11 12 11 10 11 7 3 4 10 13 11 10 8 5 6 8 6 6 6 0 2
9 11 12 14 16 17 18 18 18 17 16 17 17 16 17 14 13 13 9 7 8 9 9 7 4 5 6 6 8 7 6 6 7 9 9 7 6 9 12 13 14 14 20 21 13 17 22 8 10 14 15 14 13 20 23 19 12 10 8 14 19 15 12 19 17 10 12 13 12 11 9 8 6 4 9 12 12 12 11 9 6 8 9 4 3 5 1 0
11 14 15 17 18 18 18 18 19 18 17 19 19 17 14 9 9 11 10 13 14 10 11 5 6 5 7 5 11 7 9 8 7 9 11 11 8 6 9 13 12 13 20 19 14 18 18 10 5 9 6 6 12 17 20 21 18 13 14 12 9 11 14 13 10 8 11 13 11 12 11 10 7 7 8 7 8 11 12 11 10 8 8 5 2 1 0 1
13 16 19 20 19 19 19 19 19 19 19 19 17 15 13 8 8 11 11 17 17 12 12 6 10 4 11 10 13 11 11 10 5 6 10 11 7 4 9 12 12 13 16 15 18 22 14 10 9 6 4 3 4 11 15 17 15 11 9 7 3 5 6 4 5 7 11 14 13 12 12 12 11 7 5 7 10 11 11 11 10 7 5 5 5 3 1 2
16 18 21 22 21 20 20 20 20 20 20 19 15 14 14 11 12 13 13 17 14 13 19 15 7 7 11 11 10 10 11 11 4 7 7 4 2 6 12 12 11 13 15 14 19 22 14 8 7 6 6 0 5 11 11 14 9 9 8 5 7 8 7 9 11 10 12 15 13 13 15 13 9 8 12 16 15 12 11 10 8 8 7 7 7 6 4 4
17 19 22 24 22 21 21 21 21 21 20 18 15 14 15 13 13 15 16 15 9 12 20 14 5 8 10 10 12 9 7 9 9 7 2 2 4 5 10 13 12 13 14 15 18 23 20 11 8 11 13 5 8 8 5 9 7 11 13 13 12 11 10 13 18 16 14 15 14 14 16 16 11 10 15 18 15 15 15 14 14 14 12 10 9 7 6 7
18 20 23 24 23 22 22 21 21 21 20 20 18 17 17 15 13 14 15 14 8 10 17 13 5 7 9 10 13 10 7 9 9 4 10 3 11 9 7 11 13 12 12 12 14 21 22 15 11 17 21 12 16 12 7 8 11 11 14 14 13 14 15 17 17 15 14 15 14 15 16 18 17 13 14 14 15 18 16 13 16 16 12 10 10 8 6 7
19 22 24 24 23 22 22 22 22 21 21 23 23 22 19 17 15 14 14 13 10 8 13 16 11 7 8 9 10 9 9 9 7 3 8 6 15 13 8 11 13 12 9 9 11 15 19 14 12 19 24 14 17 16 12 14 14 11 14 14 12 15 17 18 16 12 13 13 13 16 18 18 18 16 14 15 17 18 14 12 16 16 12 10 9 9 8 9
20 22 24 24 24 23 21 20 21 22 22 22 24 24 21 17 15 15 14 12 12 10 10 13 12 9 7 9 10 9 8 7 6 5 8 9 10 10 10 12 12 12 12 16 17 17 18 14 11 16 21 16 14 13 10 11 13 13 13 14 14 14 13 14 14 11 13 13 14 17 18 17 18 17 16 16 16 16 14 15 17 17 16 13 10 9 10 10
19 21 24 25 26 25 23 22 21 21 21 20 21 22 22 16 12 14 14 11 10 11 10 10 10 9 8 8 11 10 5 6 7 5 6 8 8 5 10 14 12 11 15 19 19 15 14 11 9 12 17 14 9 8 8 9 11 11 10 11 13 13 11 12 12 10 13 15 16 18 18 17 17 17 17 15 14 15 17 18 16 14 15 14 10 8 9 9
19 21 23 25 26 26 26 26 23 21 21 21 19 18 19 17 14 14 13 11 10 8 8 8 8 7 8 9 10 10 7 5 7 8 9 8 8 5 8 14 12 10 13 17 18 16 14 11 10 11 14 13 6 5 7 8 8 8 8 8 9 11 12 12 11 12 14 15 14 15 16 17 17 17 16 14 15 18 20 18 14 12 12 11 8 8 10 11
19 21 24 26 26 25 25 27 27 24 20 18 18 19 19 17 16 13 11 12 13 10 9 10 8 5 4 7 8 8 9 4 4 10 12 4 5 5 7 10 9 9 13 16 18 19 15 11 9 9 11 13 9 6 8 7 6 7 8 7 7 8 11 13 12 11 11 12 12 10 12 16 20 21 19 16 18 20 18 14 12 11 13 12 10 10 10 10
19 21 23 24 25 25 24 24 23 19 13 11 15 21 20 17 16 15 14 14 12 9 11 13 10 6 6 8 8 9 10 8 7 10 12 4 4 5 4 4 4 8 12 13 14 16 14 10 10 8 8 11 10 7 7 8 7 8 9 7 7 6 10 13 14 12 11 10 9 10 15 20 21 20 20 19 17 17 15 13 12 13 14 15 14 14 11 8
20 21 20 21 22 22 22 21 19 15 11 10 15 18 18 17 14 12 13 16 10 4 7 11 9 9 11 9 8 8 10 10 8 9 12 9 10 7 7 6 3 4 6 10 10 12 12 9 8 7 8 10 10 8 9 11 12 12 12 10 9 8 13 16 17 19 19 15 11 14 21 24 20 16 17 19 19 19 18 15 12 12 14 14 15 15 12 9
21 20 19 21 22 20 19 18 17 16 13 10 13 14 14 14 11 6 8 15 13 8 7 9 10 11 12 10 10 9 8 9 7 9 9 7 6 7 7 6 4 2 4 6 7 9 12 9 4 6 7 10 12 11 10 11 13 14 13 13 12 11 12 18 21 23 24 23 19 19 23 25 20 16 17 20 21 21 20 16 13 12 14 15 15 13 11 11
21 21 22 22 20 19 17 15 14 16 13 11 11 10 10 13 13 10 8 10 12 11 10 10 11 11 10 10 11 12 10 8 9 11 10 3 3 6 3 2 8 5 5 3 2 7 12 11 6 8 10 10 12 12 10 10 13 14 13 13 13 12 14 22 27 24 21 23 23 21 22 22 17 17 22 23 21 20 19 17 14 13 15 17 16 14 13 13
Wind_Direction
262 262 263 263 263 263 263 263 261 259 257 255 254 254 253 253 253 253 254 254 254 255 256 257 257 259 261 264 267 269 268 262 259 264 268 274 300 328 295 239 193 131 119 88 350 32 44 36 29 28 32 33 35 35 27 32 41 41 35 32 36 35 34 35 33 30 26 27 25 24 29 28 34 47 66 74 56 164 167 180 181 172 166 148 139 152 164 180
263 263 263 262 262 262 261 262 261 261 259 256 254 253 252 252 252 252 253 253 253 254 255 256 257 258 258 260 262 264 265 260 255 256 257 259 267 284 289 253 224 194 191 214 263 351 43 36 31 25 29 33 37 39 26 27 36 36 35 35 35 33 34 36 35 32 26 26 25 22 26 27 29 38 53 52 35 149 160 164 170 170 170 159 143 157 175 194
265 265 265 264 263 262 261 260 260 260 259 258 255 253 251 251 251 252 252 252 253 253 253 255 255 256 257 257 259 261 262 258 254 252 251 253 256 261 272 261 233 217 208 212 238 258 276 19 35 23 25 33 37 39 31 28 30 30 33 32 28 28 32 36 35 32 28 27 26 24 23 24 24 29 43 30 19 68 133 145 154 160 171 173 161 163 183 209
266 267 267 267 266 264 262 260 259 258 258 257 256 254 252 250 250 250 251 251 251 251 252 253 253 254 255 255 256 258 259 259 257 253 251 251 252 255 261 262 242 226 219 215 223 235 252 317 35 24 23 28 33 40 35 28 25 25 31 29 21 21 26 34 35 32 32 30 28 26 22 21 20 24 34 18 13 56 72 126 155 159 166 180 183 176 188 215
266 267 267 268 268 267 265 262 260 258 257 256 256 255 253 251 249 248 249 250 250 250 250 251 252 253 253 254 254 256 257 258 256 252 252 252 253 256 259 260 249 232 223 220 223 229 245 276 19 16 22 16 22 39 37 27 24 22 24 24 15 12 18 27 35 34 34 35 32 29 23 19 18 25 36 26 19 55 63 103 148 144 158 188 198 194 207 210
265 266 267 268 269 269 267 265 262 259 257 255 255 254 254 253 250 248 247 248 248 249 249 249 251 251 252 253 253 255 254 254 255 253 255 256 258 260 261 258 248 236 224 221 226 229 231 231 273 334 26 21 22 36 36 28 24 19 17 18 8 5 10 17 30 34 37 39 34 31 25 18 18 28 45 42 34 58 61 59 80 81 146 191 194 200 213 199
264 265 267 268 268 268 268 267 264 261 259 256 254 253 253 253 251 250 247 246 246 247 248 248 249 250 250 251 252 252 251 254 255 254 256 259 261 261 259 255 245 234 225 220 226 230 222 215 256 331 28 27 33 36 32 27 22 17 14 10 2 2 3 6 23 32 38 40 36 34 28 20 17 23 41 46 39 44 40 30 27 33 121 199 197 201 214 213
264 264 265 266 266 267 267 266 265 263 260 257 255 253 252 251 251 251 249 246 245 245 246 246 247 248 248 250 250 251 252 254 255 255 258 259 261 259 255 250 240 230 222 216 221 228 219 212 236 239 40 19 36 34 28 26 19 15 10 1 359 1 354 358 19 33 39 39 36 35 30 22 16 15 30 45 47 34 20 13 10 22 339 228 208 211 228 235
264 264 264 264 264 265 265 265 265 263 260 258 255 253 251 250 250 250 249 247 245 244 244 244 245 245 247 248 248 250 251 252 253 254 255 255 256 253 248 244 234 225 220 214 217 225 218 211 227 198 92 38 44 37 30 27 13 9 7 359 357 355 348 354 11 30 39 34 34 38 34 26 16 10 19 37 46 34 20 19 10 15 341 281 216 219 219 220
264 264 263 263 263 263 263 264 263 262 260 258 255 253 251 250 249 248 248 248 246 244 243 243 243 243 245 245 247 249 248 248 250 249 249 250 249 244 239 236 226 219 216 213 217 222 215 211 218 189 109 50 52 46 38 29 11 4 3 358 356 351 349 353 4 25 37 26 30 41 34 29 21 12 13 26 37 32 25 23 5 356 334 268 223 224 205 201
264 263 263 262 262 261 261 261 261 261 259 257 255 253 250 248 247 247 247 246 246 244 242 242 242 242 243 244 246 246 244 244 244 244 243 243 241 236 235 230 220 215 211 209 214 216 211 210 206 184 142 60 52 52 41 26 10 3 360 356 353 350 350 352 357 21 39 26 28 41 34 31 30 22 16 20 27 27 26 24 5 348 321 261 225 227 208 197
263 262 262 261 261 260 259 259 259 259 257 256 254 252 250 248 246 245 245 244 244 244 242 241 241 241 241 242 243 242 242 242 240 239 238 236 233 230 231 224 215 213 208 207 210 209 207 200 193 195 194 170 49 51 37 18 7 1 359 355 348 347 350 344 346 11 36 33 31 38 39 34 29 28 23 19 21 21 22 21 13 353 320 287 246 228 211 199
261 261 260 259 259 258 258 257 256 256 256 254 252 251 249 247 245 243 243 242 242 242 242 241 240 240 240 240 240 240 240 241 239 236 233 230 226 226 227 218 211 210 208 208 208 206 206 199 194 200 203 197 60 39 15 3 360 358 355 353 351 354 353 337 339 359 13 25 33 30 38 41 29 24 24 24 24 20 17 16 14 4 336 299 268 231 215 208
260 260 258 257 256 256 256 255 254 253 253 252 251 249 247 245 244 242 242 241 240 240 240 240 239 239 239 237 236 237 237 237 236 233 230 227 223 222 222 215 209 210 208 207 206 203 203 201 195 196 205 207 203 328 346 345 344 348 339 340 354 0 354 338 337 349 355 10 24 16 21 35 29 18 16 22 27 25 19 12 11 9 351 302 275 241 219 213
259 258 257 256 254 253 253 252 251 251 250 250 249 248 246 244 242 241 240 239 239 238 238 239 239 239 237 233 235 237 236 236 235 231 228 224 221 220 218 212 206 211 211 207 204 201 202 203 197 194 207 220 238 272 312 322 323 335 331 331 342 347 346 336 331 339 350 3 13 6 11 23 21 13 10 16 21 23 23 14 10 9 357 317 280 256 228 216
258 257 256 254 252 251 250 249 249 248 247 247 246 246 244 243 241 239 238 238 237 237 236 237 237 238 236 233 236 236 233 234 233 231 228 223 221 218 216 209 202 210 214 210 206 201 202 203 199 200 212 226 238 261 287 303 318 331 336 333 329 331 335 325 322 336 349 352 360 1 359 5 12 11 4 5 13 16 19 18 13 10 3 342 284 254 234 218
258 256 254 253 251 250 248 247 246 246 245 244 243 243 242 241 240 238 237 236 236 235 235 235 235 236 234 231 233 231 229 229 227 227 225 221 219 215 213 207 201 207 212 211 209 205 203 203 204 208 216 229 243 261 280 299 320 327 337 336 322 320 323 320 325 340 348 343 350 351 337 347 7 9 2 360 4 7 10 13 11 13 9 351 276 238 236 218
258 256 253 252 250 248 247 245 244 243 243 241 241 241 240 239 238 237 236 234 234 234 233 233 232 232 231 230 232 231 228 228 227 225 222 219 216 213 212 208 204 207 210 211 209 208 206 206 208 210 214 226 242 256 277 296 313 318 326 328 318 317 322 329 331 336 345 338 332 330 328 347 359 355 358 1 357 354 3 10 4 6 12 7 296 225 230 216
259 255 252 251 248 246 245 243 241 240 240 239 238 238 238 237 236 236 234 233 233 231 231 230 230 232 234 235 236 233 227 226 225 221 218 216 214 212 211 209 209 209 211 211 209 208 207 207 208 209 214 223 236 251 271 288 299 303 312 317 316 319 318 321 321 322 339 334 317 319 332 348 348 342 348 356 353 349 357 2 355 356 9 18 12 232 215 209
262 256 251 249 247 245 243 241 238 237 238 237 236 236 236 235 235 235 234 233 231 230 229 229 228 229 231 232 233 228 224 224 224 219 216 215 213 212 210 209 212 212 212 212 209 207 206 207 209 212 216 222 235 249 264 272 281 290 301 307 309 312 307 310 312 308 326 332 311 310 327 338 329 334 344 343 347 349 353 353 349 356 9 22 26 231 187 190
267 259 251 247 244 243 241 238 235 234 235 235 234 234 234 234 233 232 231 230 229 229 230 229 229 230 229 228 227 224 223 224 224 220 217 215 213 211 210 211 213 213 214 213 210 208 207 209 212 219 223 227 238 249 259 264 272 282 290 298 307 309 301 305 306 298 313 322 306 306 321 327 320 330 340 338 344 344 347 349 345 352 5 22 35 67 167 176
269 261 253 245 241 240 238 236 233 232 233 232 231 231 231 231 230 231 230 229 228 228 228 229 229 229 228 227 227 225 224 223 222 219 218 216 214 212 211 213 213 214 217 215 212 209 208 213 215 222 230 234 242 249 252 257 266 275 280 289 297 297 304 315 302 287 299 308 302 307 313 316 319 325 329 333 344 338 337 346 345 344 353 17 40 58 135 176
271 261 252 243 238 236 235 232 230 229 230 230 229 228 228 228 228 229 229 228 228 227 228 228 228 227 226 226 227 227 226 224 221 219 219 218 217 215 213 215 216 218 220 220 217 210 206 214 217 224 233 237 239 246 252 257 266 271 277 282 280 291 327 338 298 281 295 310 298 296 302 311 316 318 324 330 335 333 330 338 345 343 342 0 37 52 75 161
275 259 248 239 234 232 231 229 227 227 227 226 225 224 224 224 225 226 226 227 227 226 226 226 227 226 225 226 226 227 226 225 223 221 222 222 220 218 216 217 218 220 222 223 222 215 214 219 222 229 240 242 241 249 257 260 265 269 275 275 265 284 317 295 256 262 297 315 287 282 299 309 311 317 327 328 326 324 322 334 347 350 341 349 22 44 51 98
277 258 242 234 230 228 227 226 224 224 223 222 220 219 219 219 221 223 223 225 225 224 224 225 226 225 225 225 225 226 226 225 224 223 224 225 223 221 219 220 221 223 224 226 226 224 228 234 234 238 244 243 246 255 258 259 264 273 285 279 255 249 261 253 244 262 295 299 273 278 300 304 309 328 326 319 319 318 319 339 343 344 353 356 11 34 40 52
272 255 237 229 226 225 224 223 221 219 216 214 212 211 212 213 215 217 218 223 225 223 223 223 224 224 222 222 223 224 226 225 222 221 223 224 224 223 223 224 224 225 226 227 229 228 233 240 242 243 244 246 253 257 256 258 259 267 284 273 254 253 253 248 255 271 284 282 270 277 300 299 303 324 319 313 316 314 321 339 331 330 9 18 10 18 31 41
264 253 239 228 223 221 220 217 214 212 207 203 202 201 202 204 208 211 213 222 225 222 223 222 222 222 220 221 221 219 223 224 219 219 221 220 222 223 224 226 226 228 231 232 235 236 236 243 249 251 249 250 255 253 252 255 247 237 256 252 244 249 242 235 245 253 261 273 278 287 296 294 299 313 316 315 316 316 326 335 327 329 1 34 34 18 20 39
259 250 240 230 223 219 214 209 205 199 189 187 190 191 192 196 201 203 201 210 216 213 219 221 218 220 220 219 220 219 223 225 220 219 219 218 219 219 221 225 226 229 233 234 240 243 242 244 249 253 252 250 249 243 244 247 231 217 244 263 253 245 231 226 238 243 249 265 279 287 294 293 296 308 311 309 308 311 323 332 335 338 346 16 41 34 5 36
258 246 237 230 222 217 208 200 193 184 178 179 180 181 186 189 192 191 194 210 218 209 212 217 215 218 218 217 220 222 224 226 223 222 221 221 220 217 219 223 226 230 232 233 235 239 240 237 241 250 251 248 246 238 243 247 226 217 235 255 251 232 224 227 232 240 253 264 276 292 305 297 294 298 303 304 303 305 321 334 346 349 348 359 15 30 15 24
256 241 232 225 218 211 202 194 186 178 176 177 176 179 182 184 185 180 183 215 223 213 211 216 216 217 216 218 220 218 219 221 219 218 221 222 222 220 221 223 225 227 229 228 229 236 242 239 242 253 250 238 231 228 242 249 227 223 236 240 230 221 225 243 249 249 253 268 295 308 297 282 284 289 299 309 311 324 342 340 346 345 346 352 356 13 24 20
255 238 226 217 211 204 196 190 183 179 178 178 178 179 178 179 177 167 173 211 221 220 221 219 217 213 212 215 216 215 219 220 215 215 218 218 220 220 221 222 223 225 224 223 227 236 243 243 245 246 235 227 227 228 241 245 224 229 242 238 224 250 299 276 270 267 266 276 288 297 282 268 275 286 299 310 315 333 348 347 346 336 336 346 349 2 14 13
254 236 220 209 204 200 194 188 184 182 182 181 180 179 180 177 170 175 197 214 216 227 225 222 217 211 210 211 212 215 218 217 215 219 221 218 218 218 219 221 222 222 222 223 229 236 241 243 244 240 232 229 232 234 231 223 225 228 238 241 202 118 281 259 252 258 262 267 266 277 285 275 278 287 293 294 300 315 324 328 337 335 338 344 349 360 0 358
246 231 215 203 198 196 192 188 186 185 184 183 181 179 180 170 165 180 178 135 213 241 220 214 214 211 211 209 211 215 217 218 218 220 222 221 220 217 216 219 219 215 218 227 231 244 258 251 242 243 242 237 236 235 224 217 244 233 220 227 192 154 267 271 268 257 250 262 266 265 274 279 287 294 297 296 297 307 316 321 328 329 333 335 349 359 349 340
236 222 208 198 194 192 190 188 187 187 185 184 183 176 174 169 168 174 129 104 229 242 220 208 211 210 210 210 212 210 213 221 222 223 226 224 225 221 218 220 217 211 216 221 212 242 299 285 259 250 247 240 233 226 205 178 232 254 232 217 185 182 276 286 289 272 250 274 272 250 251 267 280 294 307 305 296 300 319 335 328 320 324 327 343 1 358 7
224 210 200 193 191 189 188 187 186 187 185 182 181 174 170 169 153 139 146 206 230 222 214 209 206 208 201 202 212 206 209 222 221 223 228 225 226 224 222 222 216 213 214 204 186 201 275 281 264 259 256 242 219 211 208 194 186 215 225 221 148 244 266 282 294 274 231 260 278 258 258 270 276 293 301 296 287 288 303 323 331 324 319 319 332 21 15 9
207 197 190 186 184 184 185 185 185 185 184 182 180 175 170 165 146 136 157 234 250 209 211 205 196 199 174 172 203 201 203 223 221 215 219 223 224 222 222 220 216 217 205 175 162 174 184 260 255 262 275 256 217 213 213 207 201 167 156 247 235 237 281 290 279 268 242 247 267 254 269 283 284 299 294 286 291 295 296 304 330 326 299 294 300 299 45 5
189 181 178 175 173 176 177 178 180 179 180 181 179 181 176 166 165 157 148 205 234 192 183 177 185 186 158 165 201 205 196 213 215 203 207 216 223 224 223 221 219 212 193 190 192 171 167 237 261 260 274 266 226 216 213 209 209 161 145 230 221 209 280 251 240 251 246 238 243 245 266 271 262 274 238 250 274 290 298 301 318 311 286 266 279 284 305 36
172 166 164 163 160 164 168 169 171 172 174 174 174 187 188 174 173 170 151 157 178 168 151 146 190 188 153 176 218 212 165 176 197 188 187 187 196 223 224 222 224 204 195 209 210 167 159 179 272 261 261 258 225 210 208 203 193 173 190 224 210 198 230 232 222 239 255 243 228 228 245 236 214 240 235 232 258 286 300 303 307 303 289 283 321 311 316 109
162 158 153 152 150 153 159 161 163 165 168 170 174 183 182 176 180 177 162 148 139 125 120 134 258 214 137 187 235 217 137 148 198 182 182 197 195 221 220 210 216 204 202 210 194 172 162 153 222 258 258 232 217 210 206 206 207 211 216 211 201 206 219 220 203 208 249 249 225 222 236 233 231 262 257 230 248 279 290 290 289 287 285 304 345 341 89 270
152 153 147 144 144 147 152 156 158 163 168 170 178 178 157 149 170 168 163 152 135 116 126 176 264 212 133 173 227 225 161 156 216 191 190 209 199 252 247 211 204 204 206 204 183 180 185 170 175 226 238 156 212 231 213 205 222 249 236 214 257 258 232 239 228 223 249 248 231 229 233 233 236 237 240 234 233 249 271 281 279 273 269 287 290 285 327 291
145 148 144 140 141 145 150 155 159 163 168 167 172 169 150 151 165 159 167 169 146 128 148 171 214 169 152 170 196 217 178 152 199 219 219 240 192 269 259 224 209 208 197 198 194 185 187 200 184 188 206 164 321 261 201 166 195 257 266 267 285 275 264 270 264 252 246 241 237 238 233 232 231 207 217 234 238 244 262 271 272 284 300 310 307 312 328 301
144 146 145 141 142 148 152 158 163 163 165 163 164 160 146 148 161 154 162 175 157 137 150 160 175 169 175 166 162 196 193 161 192 203 171 236 206 246 252 218 208 212 195 190 200 188 173 181 202 178 172 198 275 261 141 126 189 237 245 238 231 237 243 255 262 259 243 236 233 227 223 217 206 204 224 238 253 266 270 273 280 289 298 305 310 318 319 307
144 146 145 143 145 150 154 158 160 158 156 153 152 149 141 142 153 148 152 166 170 157 151 147 157 175 171 159 162 186 186 163 183 138 86 153 236 251 250 215 196 201 205 193 197 198 184 181 197 168 151 181 231 217 170 192 212 224 236 228 218 230 230 226 243 263 261 250 234 214 211 214 213 226 245 249 260 267 266 272 283 288 283 276 289 304 303 294
149 150 147 145 148 152 154 155 155 155 157 155 147 141 139 142 147 145 150 156 154 158 156 153 157 162 169 169 162 180 186 157 170 180 123 177 255 257 220 204 189 179 186 168 174 208 208 205 201 165 147 171 224 216 196 196 192 205 233 228 212 225 232 218 214 241 257 254 246 229 223 226 226 235 254 257 254 259 264 267 268 272 275 274 279 286 284 276
155 155 150 148 149 149 148 149 150 151 156 153 143 137 136 140 146 147 151 152 142 142 150 155 152 141 165 182 160 174 202 155 154 207 161 175 251 250 196 188 177 168 177 178 184 201 204 200 201 180 168 178 208 218 214 198 186 195 221 231 219 213 225 223 213 231 247 244 253 250 236 235 239 241 254 260 255 257 264 265 261 267 281 287 284 286 290 285
160 158 153 151 149 146 144 145 146 147 147 143 138 138 136 136 145 146 143 145 146 142 135 142 150 146 157 169 154 161 176 148 171 188 147 180 227 216 189 184 171 184 200 198 198 194 186 195 212 202 190 190 208 227 226 213 202 200 212 223 217 207 213 220 212 225 242 242 250 254 244 241 247 246 244 248 257 262 260 261 269 280 285 281 277 282 280 277
162 158 158 157 150 147 145 145 148 147 141 140 143 141 134 135 143 145 145 147 142 131 125 143 158 154 159 162 153 156 158 162 195 168 147 202 222 175 192 194 183 196 198 193 197 190 185 208 226 210 194 188 198 226 227 222 213 221 235 224 212 213 211 208 209 222 236 239 244 251 248 243 247 248 242 236 242 250 254 259 267 274 278 275 274 272 264 271
166 165 167 161 152 149 148 149 154 150 136 136 146 142 133 137 144 142 142 145 143 143 152 152 136 109 144 164 151 154 159 165 199 160 147 199 227 177 198 196 184 192 184 185 198 194 193 208 205 198 200 192 185 210 246 251 224 227 247 230 219 230 219 209 213 223 237 240 242 258 263 253 249 249 246 237 234 240 250 257 257 261 269 267 264 268 269 280
169 172 172 165 159 156 153 156 162 155 134 123 139 143 136 136 147 151 147 146 149 160 159 141 122 130 173 167 154 163 158 153 182 162 134 137 221 188 148 143 182 204 186 185 199 197 199 209 192 189 213 207 196 208 242 255 245 246 256 238 217 239 247 233 216 214 231 238 242 260 262 257 254 249 246 246 244 246 250 250 251 259 264 261 261 268 274 276
173 175 174 174 169 159 154 160 162 158 151 124 122 136 139 134 142 155 154 150 144 126 138 135 135 173 188 167 153 164 145 139 180 175 146 170 206 182 133 141 205 240 190 180 194 196 196 208 214 217 220 212 208 211 226 237 236 236 245 242 225 231 252 249 228 217 216 208 205 230 242 248 250 244 243 245 243 243 245 248 255 259 261 266 270 273 278 278
175 175 175 177 174 160 158 166 161 157 167 151 126 133 143 143 149 155 138 136 128 109 129 163 179 187 186 173 168 174 149 133 169 184 173 186 187 154 151 150 132 319 266 203 188 192 187 188 240 258 230 214 213 212 223 241 243 238 241 244 238 236 252 258 247 231 217 210 212 221 232 240 241 229 228 234 238 245 252 259 266 263 261 264 265 268 276 276
173 173 175 178 179 171 171 178 161 150 164 172 149 131 135 149 165 179 163 137 137 147 159 182 191 181 179 184 186 188 184 169 170 177 185 204 126 139 186 137 129 174 245 225 225 229 200 188 226 250 230 217 215 215 223 236 239 242 246 245 244 241 244 249 247 239 226 224 229 233 240 249 248 231 227 230 235 248 262 270 275 274 271 266 258 255 262 269
Height
5900 5901 5901 5902 5902 5903 5903 5904 5904 5905 5906 5907 5907 5908 5909 5909 5910 5910 5910 5911 5911 5912 5912 5913 5913 5914 5914 5914 5915 5916 5916 5917 5917 5917 5918 5918 5918 5918 5918 5918 5918 5918 5918 5918 5917 5917 5916 5915 5915 5915 5914 5914 5914 5913 5912 5912 5911 5910 5911 5911 5909 5908 5908 5907 5905 5904 5903 5902 5900 5898 5898 5898 5898 5899 5898 5898 5897 5898 5899 5900 5901 5901 5902 5902 5903 5903 5903 5904
5898 5899 5899 5900 5900 5901 5901 5902 5902 5903 5904 5905 5905 5906 5907 5907 5908 5908 5909 5909 5910 5911 5911 5911 5912 5912 5913 5914 5914 5915 5915 5916 5917 5917 5917 5917 5918 5918 5918 5918 5918 5919 5919 5918 5918 5917 5917 5916 5916 5915 5915 5914 5914 5914 5913 5913 5912 5911 5911 5911 5910 5910 5909 5908 5907 5906 5904 5904 5902 5900 5899 5898 5899 5899 5898 5897 5897 5899 5900 5901 5902 5902 5902 5903 5903 5903 5904 5905
5896 5897 5897 5898 5898 5899 5899 5900 5900 5901 5902 5902 5903 5904 5905 5906 5906 5907 5907 5908 5909 5909 5910 5910 5910 5911 5912 5912 5913 5914 5914 5915 5916 5916 5917 5917 5917 5917 5918 5918 5918 5918 5918 5918 5918 5917 5917 5917 5916 5916 5915 5915 5915 5915 5914 5913 5912 5912 5911 5911 5911 5911 5910 5909 5908 5908 5906 5905 5904 5902 5901 5900 5900 5899 5899 5898 5897 5899 5900 5901 5903 5903 5903 5904 5904 5905 5905 5905
5894 5894 5895 5895 5896 5896 5897 5897 5898 5899 5899 5900 5901 5902 5903 5903 5904 5905 5906 5906 5907 5908 5908 5909 5909 5910 5910 5911 5912 5913 5913 5914 5915 5916 5916 5916 5917 5917 5917 5918 5918 5918 5918 5918 5918 5918 5917 5917 5916 5916 5916 5916 5915 5915 5914 5914 5914 5913 5912 5912 5912 5912 5911 5911 5910 5909 5908 5907 5906 5905 5903 5902 5901 5900 5900 5900 5899 5899 5900 5902 5904 5904 5904 5905 5906 5906 5906 5906
5892 5892 5893 5893 5894 5894 5895 5895 5896 5896 5897 5898 5898 5899 5900 5901 5902 5903 5904 5905 5905 5906 5906 5907 5907 5908 5909 5910 5910 5911 5912 5913 5914 5915 5915 5915 5916 5916 5917 5917 5917 5917 5917 5918 5918 5918 5918 5917 5916 5916 5916 5917 5916 5915 5915 5915 5915 5914 5914 5913 5913 5913 5912 5913 5912 5911 5910 5909 5908 5907 5905 5903 5902 5902 5903 5902 5901 5901 5902 5903 5904 5904 5905 5906 5906 5907 5907 5907
5889 5890 5890 5891 5891 5892 5892 5893 5893 5894 5895 5895 5896 5897 5898 5899 5900 5901 5902 5903 5903 5904 5905 5905 5906 5907 5907 5908 5909 5910 5911 5911 5912 5913 5914 5914 5915 5915 5916 5916 5917 5917 5917 5917 5917 5918 5918 5917 5917 5916 5916 5917 5917 5916 5916 5916 5916 5916 5915 5914 5914 5914 5913 5913 5914 5913 5912 5911 5909 5908 5906 5904 5904 5905 5905 5904 5903 5903 5903 5904 5905 5905 5906 5906 5906 5907 5908 5908
5887 5887 5888 5888 5889 5889 5890 5890 5891 5892 5892 5893 5894 5894 5895 5897 5898 5898 5899 5900 5901 5902 5903 5904 5904 5905 5906 5907 5907 5908 5909 5910 5911 5912 5912 5913 5914 5914 5915 5915 5915 5916 5916 5917 5917 5918 5918 5917 5917 5917 5917 5917 5916 5916 5916 5916 5916 5916 5915 5915 5915 5914 5914 5914 5915 5915 5914 5912 5911 5910 5908 5906 5905 5905 5906 5906 5904 5904 5904 5905 5906 5906 5906 5906 5906 5907 5908 5908
5884 5885 5885 5886 5886 5887 5887 5888 5888 5889 5890 5890 5891 5892 5893 5894 5895 5896 5897 5898 5899 5900 5901 5902 5903 5903 5904 5905 5906 5906 5908 5909 5910 5911 5911 5912 5912 5913 5913 5913 5914 5915 5915 5916 5917 5917 5918 5917 5917 5917 5917 5918 5917 5916 5916 5916 5916 5916 5916 5916 5915 5915 5914 5914 5916 5917 5915 5914 5912 5911 5910 5908 5906 5905 5906 5908 5907 5906 5906 5906 5906 5906 5905 5906 5906 5907 5908 5909
5881 5882 5882 5883 5884 5884 5885 5885 5886 5887 5887 5888 5889 5889 5890 5891 5893 5894 5895 5896 5897 5898 5899 5900 5901 5901 5902 5903 5904 5905 5906 5907 5908 5909 5910 5910 5911 5912 5912 5912 5913 5914 5914 5915 5916 5916 5917 5917 5917 5917 5918 5918 5917 5917 5917 5917 5917 5917 5916 5916 5916 5915 5914 5914 5916 5918 5917 5915 5914 5913 5911 5909 5908 5905 5905 5907 5908 5908 5908 5907 5906 5905 5906 5906 5906 5907 5908 5909
5878 5879 5879 5880 5881 5882 5882 5883 5883 5884 5885 5886 5886 5887 5888 5889 5890 5891 5892 5893 5894 5895 5896 5897 5898 5899 5900 5901 5902 5904 5905 5905 5906 5908 5908 5909 5910 5910 5911 5911 5912 5912 5914 5915 5916 5916 5917 5917 5917 5918 5918 5918 5917 5917 5917 5917 5917 5917 5917 5917 5917 5916 5915 5915 5916 5918 5919 5916 5915 5915 5913 5912 5910 5907 5905 5906 5909 5909 5908 5906 5905 5906 5906 5906 5906 5907 5908 5909
5874 5875 5876 5877 5878 5879 5879 5880 5881 5881 5882 5883 5884 5885 5885 5886 5887 5889 5890 5891 5892 5893 5894 5895 5896 5897 5899 5899 5901 5903 5903 5904 5905 5906 5907 5908 5909 5909 5909 5910 5910 5911 5912 5914 5915 5915 5916 5916 5917 5918 5918 5918 5918 5917 5917 5917 5917 5917 5917 5917 5917 5916 5915 5914 5915 5918 5919 5917 5916 5916 5915 5914 5912 5910 5907 5907 5908 5908 5907 5906 5906 5907 5907 5907 5907 5907 5908 5908
5870 5871 5872 5873 5874 5875 5876 5877 5878 5879 5879 5880 5881 5882 5883 5884 5885 5886 5887 5888 5889 5890 5891 5892 5894 5895 5896 5898 5900 5901 5901 5902 5903 5904 5906 5907 5907 5908 5908 5909 5909 5910 5911 5912 5913 5914 5915 5916 5917 5918 5918 5918 5918 5917 5917 5917 5917 5917 5918 5917 5917 5917 5916 5914 5915 5917 5919 5919 5918 5917 5917 5915 5914 5913 5911 5910 5909 5908 5907 5907 5907 5908 5908 5907 5907 5907 5907 5908
5866 5867 5868 5869 5871 5872 5873 5874 5875 5876 5877 5878 5878 5879 5880 5881 5882 5883 5884 5886 5887 5888 5889 5890 5892 5893 5894 5897 5898 5898 5900 5901 5902 5903 5904 5905 5906 5907 5907 5908 5908 5909 5910 5911 5912 5914 5914 5915 5916 5917 5918 5918 5918 5918 5918 5917 5918 5918 5918 5917 5917 5917 5916 5915 5915 5916 5917 5919 5918 5917 5918 5917 5916 5914 5913 5912 5911 5910 5909 5908 5908 5908 5907 5907 5907 5907 5907 5908
5862 5863 5864 5865 5867 5868 5869 5870 5872 5873 5874 5875 5876 5877 5878 5879 5880 5881 5882 5883 5884 5886 5887 5888 5889 5890 5893 5895 5895 5896 5898 5899 5900 5902 5903 5904 5905 5906 5906 5907 5907 5908 5909 5910 5911 5913 5914 5915 5916 5917 5918 5918 5918 5918 5918 5917 5918 5918 5918 5917 5917 5917 5916 5916 5915 5915 5916 5917 5917 5917 5917 5917 5917 5916 5915 5913 5912 5912 5911 5910 5909 5907 5907 5907 5907 5906 5907 5908
5858 5859 5860 5861 5863 5864 5865 5866 5868 5869 5870 5872 5873 5874 5875 5876 5877 5878 5879 5881 5882 5883 5884 5885 5887 5888 5890 5892 5893 5895 5897 5898 5899 5901 5902 5903 5904 5904 5905 5906 5907 5907 5908 5909 5911 5912 5913 5914 5915 5917 5917 5918 5918 5918 5917 5917 5917 5918 5918 5917 5918 5918 5917 5916 5916 5915 5915 5915 5916 5916 5916 5915 5916 5917 5916 5914 5913 5912 5911 5910 5909 5907 5906 5906 5906 5906 5907 5907
5854 5855 5856 5857 5858 5860 5861 5863 5864 5866 5867 5868 5870 5871 5872 5873 5874 5876 5877 5878 5879 5881 5882 5883 5885 5886 5888 5890 5891 5893 5895 5896 5898 5899 5900 5901 5902 5903 5904 5905 5906 5906 5907 5909 5910 5911 5912 5914 5915 5916 5917 5918 5918 5917 5917 5917 5917 5918 5918 5918 5918 5917 5917 5917 5916 5915 5914 5915 5915 5916 5916 5916 5916 5916 5916 5914 5913 5912 5911 5910 5909 5907 5906 5905 5905 5905 5906 5907
5850 5851 5852 5853 5854 5856 5857 5859 5861 5862 5864 5865 5867 5868 5869 5870 5872 5873 5874 5876 5877 5878 5880 5881 5883 5884 5886 5888 5888 5890 5892 5894 5896 5897 5899 5900 5901 5902 5903 5904 5905 5905 5906 5908 5910 5911 5912 5913 5914 5915 5917 5917 5917 5917 5917 5918 5918 5918 5918 5918 5918 5918 5918 5917 5915 5913 5914 5915 5915 5916 5916 5916 5916 5915 5915 5914 5912 5911 5909 5909 5908 5907 5906 5905 5904 5905 5905 5906
5846 5847 5848 5849 5850 5852 5854 5856 5857 5859 5860 5862 5863 5865 5866 5868 5869 5870 5872 5873 5874 5876 5878 5879 5881 5882 5883 5885 5886 5888 5891 5893 5894 5896 5897 5898 5900 5901 5902 5903 5904 5904 5906 5907 5909 5911 5912 5913 5914 5915 5916 5917 5917 5917 5917 5918 5918 5918 5918 5918 5918 5917 5917 5916 5914 5914 5914 5914 5915 5916 5915 5915 5916 5916 5916 5915 5913 5910 5908 5907 5907 5907 5908 5906 5903 5903 5904 5906
5842 5842 5844 5845 5846 5848 5850 5852 5854 5856 5857 5858 5860 5862 5863 5865 5866 5867 5869 5871 5872 5874 5875 5877 5878 5879 5881 5883 5884 5888 5890 5891 5892 5894 5896 5897 5898 5899 5900 5902 5902 5903 5905 5906 5908 5910 5911 5912 5914 5915 5916 5916 5916 5917 5917 5918 5918 5918 5918 5918 5917 5917 5917 5916 5916 5916 5916 5915 5914 5914 5915 5915 5916 5916 5915 5915 5914 5911 5908 5907 5908 5907 5906 5903 5901 5902 5904 5906
5838 5838 5839 5841 5842 5844 5846 5848 5851 5852 5853 5855 5857 5859 5860 5862 5863 5865 5867 5868 5870 5871 5872 5874 5876 5877 5879 5881 5883 5886 5887 5887 5889 5892 5894 5895 5897 5898 5899 5900 5901 5902 5904 5905 5907 5909 5910 5911 5912 5914 5914 5915 5916 5917 5917 5917 5918 5918 5918 5918 5918 5918 5918 5918 5918 5917 5917 5917 5915 5913 5915 5915 5916 5916 5916 5914 5914 5913 5910 5908 5908 5906 5903 5902 5902 5902 5903 5905
5834 5835 5835 5837 5839 5840 5842 5845 5847 5849 5850 5852 5854 5856 5858 5859 5861 5863 5864 5866 5867 5869 5870 5872 5873 5875 5877 5879 5880 5882 5884 5885 5888 5891 5892 5894 5895 5896 5897 5899 5900 5901 5902 5904 5906 5908 5909 5911 5912 5913 5913 5914 5915 5916 5917 5917 5917 5917 5917 5918 5918 5919 5919 5919 5919 5917 5917 5918 5916 5913 5914 5914 5914 5916 5916 5916 5914 5913 5912 5910 5909 5907 5904 5904 5903 5903 5903 5904
5831 5831 5832 5833 5835 5837 5839 5841 5844 5845 5847 5849 5851 5853 5855 5857 5858 5860 5862 5863 5865 5867 5868 5870 5871 5873 5875 5877 5878 5880 5882 5884 5886 5888 5890 5892 5893 5895 5896 5897 5899 5900 5901 5903 5905 5907 5909 5910 5911 5912 5912 5913 5915 5915 5916 5916 5916 5916 5917 5918 5919 5919 5919 5920 5920 5919 5917 5918 5916 5914 5913 5913 5913 5913 5915 5916 5915 5914 5913 5911 5911 5910 5907 5906 5904 5903 5903 5903
5828 5828 5829 5830 5831 5833 5836 5838 5840 5842 5844 5846 5849 5851 5853 5855 5856 5858 5860 5861 5863 5865 5866 5868 5869 5871 5873 5874 5876 5878 5880 5882 5884 5886 5888 5890 5891 5893 5895 5897 5898 5899 5900 5902 5904 5906 5908 5908 5909 5910 5910 5912 5914 5914 5914 5915 5916 5916 5917 5918 5918 5919 5920 5921 5922 5920 5917 5918 5918 5915 5913 5913 5912 5911 5912 5913 5914 5915 5914 5912 5911 5911 5909 5907 5904 5903 5903 5903
5826 5825 5826 5827 5828 5830 5833 5835 5837 5839 5842 5844 5846 5848 5850 5853 5854 5856 5858 5859 5861 5863 5864 5866 5867 5869 5871 5873 5875 5877 5878 5880 5882 5884 5886 5888 5890 5893 5895 5896 5896 5898 5899 5901 5903 5904 5905 5905 5906 5908 5910 5912 5912 5913 5914 5914 5914 5915 5916 5917 5917 5919 5920 5920 5920 5918 5917 5918 5917 5915 5914 5912 5911 5911 5910 5909 5909 5913 5915 5914 5912 5912 5911 5908 5906 5904 5903 5903
5824 5824 5824 5825 5826 5828 5830 5832 5835 5837 5840 5842 5844 5847 5849 5851 5852 5854 5856 5857 5859 5860 5862 5864 5866 5867 5869 5872 5873 5874 5876 5879 5881 5882 5884 5887 5889 5891 5893 5894 5895 5897 5898 5899 5901 5902 5903 5903 5905 5907 5909 5911 5911 5912 5913 5913 5913 5914 5915 5916 5916 5916 5916 5917 5917 5917 5918 5918 5917 5916 5915 5913 5912 5913 5911 5908 5906 5908 5912 5913 5911 5911 5911 5908 5907 5906 5905 5904
5824 5823 5823 5824 5825 5827 5829 5831 5833 5835 5838 5840 5843 5845 5847 5849 5851 5852 5854 5856 5857 5859 5861 5862 5864 5866 5868 5869 5871 5873 5875 5876 5878 5881 5883 5885 5887 5889 5891 5893 5895 5895 5896 5897 5899 5900 5901 5902 5903 5906 5908 5909 5910 5911 5911 5911 5913 5914 5915 5915 5915 5915 5914 5914 5916 5916 5918 5918 5917 5916 5916 5913 5912 5914 5912 5909 5906 5904 5906 5909 5909 5911 5911 5909 5906 5906 5906 5904
5823 5823 5823 5824 5824 5826 5827 5829 5832 5834 5837 5839 5841 5843 5846 5848 5849 5851 5854 5855 5856 5858 5859 5861 5863 5865 5866 5868 5869 5871 5872 5873 5877 5879 5880 5882 5884 5887 5889 5890 5892 5893 5894 5896 5897 5899 5900 5900 5902 5904 5906 5908 5909 5909 5909 5910 5912 5913 5913 5912 5913 5913 5912 5913 5914 5915 5916 5917 5916 5916 5916 5914 5912 5912 5911 5909 5907 5904 5906 5908 5908 5907 5910 5911 5909 5907 5906 5905
5822 5822 5823 5823 5824 5825 5827 5829 5831 5834 5836 5838 5840 5842 5844 5846 5848 5851 5853 5854 5855 5857 5858 5860 5862 5863 5864 5866 5867 5868 5870 5873 5875 5876 5877 5880 5882 5884 5886 5887 5890 5891 5892 5895 5897 5897 5898 5899 5900 5901 5903 5906 5906 5907 5907 5907 5909 5911 5911 5910 5910 5911 5911 5912 5913 5914 5915 5916 5916 5916 5916 5915 5912 5912 5911 5909 5909 5908 5908 5909 5907 5906 5907 5910 5911 5910 5910 5909
5821 5822 5822 5823 5824 5825 5827 5828 5831 5833 5835 5837 5839 5842 5844 5846 5848 5850 5852 5853 5855 5856 5857 5859 5860 5861 5862 5864 5866 5868 5870 5872 5873 5874 5877 5879 5880 5882 5883 5885 5888 5888 5890 5893 5895 5894 5894 5896 5898 5898 5901 5904 5904 5905 5905 5905 5907 5909 5909 5909 5909 5910 5911 5912 5912 5914 5914 5915 5915 5916 5916 5915 5913 5911 5910 5909 5910 5911 5910 5909 5909 5908 5906 5908 5911 5912 5912 5911
5820 5820 5821 5822 5823 5825 5826 5828 5830 5833 5835 5837 5839 5841 5844 5846 5848 5850 5852 5853 5854 5855 5857 5858 5858 5860 5862 5863 5865 5867 5869 5869 5871 5874 5875 5876 5878 5880 5882 5884 5885 5886 5888 5891 5892 5891 5891 5895 5897 5897 5899 5901 5901 5903 5903 5904 5906 5906 5907 5909 5909 5909 5910 5911 5912 5913 5913 5914 5915 5916 5917 5915 5912 5910 5910 5910 5910 5910 5910 5909 5909 5909 5907 5907 5909 5910 5911 5910
5819 5819 5820 5821 5823 5824 5826 5828 5830 5832 5835 5837 5839 5841 5844 5846 5848 5850 5851 5852 5853 5855 5856 5856 5857 5859 5861 5862 5864 5866 5867 5868 5871 5872 5873 5875 5877 5878 5880 5882 5883 5885 5887 5889 5890 5890 5891 5894 5896 5896 5897 5898 5898 5900 5902 5904 5905 5905 5907 5908 5909 5910 5911 5912 5913 5913 5913 5915 5916 5917 5916 5914 5911 5909 5909 5910 5909 5909 5909 5909 5909 5909 5908 5908 5907 5907 5908 5909
5818 5818 5819 5820 5822 5824 5825 5828 5830 5832 5835 5837 5839 5841 5843 5845 5848 5850 5851 5852 5854 5855 5854 5856 5857 5859 5860 5862 5863 5865 5866 5868 5870 5871 5872 5874 5875 5877 5879 5881 5882 5884 5887 5888 5888 5889 5890 5892 5894 5894 5895 5897 5898 5900 5902 5903 5904 5905 5907 5908 5909 5912 5913 5913 5913 5913 5913 5915 5916 5916 5915 5912 5910 5909 5909 5909 5909 5909 5909 5909 5910 5910 5909 5910 5909 5907 5907 5909
5817 5818 5818 5820 5821 5823 5825 5827 5830 5832 5835 5837 5839 5841 5844 5846 5848 5850 5852 5853 5855 5854 5854 5855 5857 5858 5860 5861 5862 5864 5866 5867 5868 5870 5871 5873 5874 5876 5878 5879 5881 5884 5885 5887 5888 5889 5890 5891 5892 5893 5894 5896 5898 5900 5902 5904 5905 5905 5907 5908 5909 5912 5913 5913 5912 5912 5912 5913 5914 5915 5913 5911 5910 5909 5908 5907 5906 5907 5909 5910 5909 5909 5910 5910 5910 5909 5909 5909
5816 5817 5818 5819 5820 5823 5825 5827 5830 5832 5835 5837 5839 5841 5844 5846 5847 5850 5853 5854 5854 5853 5854 5856 5857 5858 5860 5861 5862 5864 5865 5867 5868 5870 5871 5872 5874 5875 5877 5878 5881 5883 5884 5886 5888 5890 5892 5892 5891 5892 5893 5894 5897 5899 5900 5902 5905 5906 5907 5908 5909 5911 5913 5913 5913 5912 5912 5912 5912 5912 5911 5910 5911 5910 5908 5906 5903 5904 5907 5909 5908 5908 5908 5909 5909 5909 5909 5910
5815 5816 5817 5818 5820 5822 5825 5827 5830 5832 5835 5837 5839 5841 5843 5846 5848 5850 5854 5855 5853 5853 5855 5856 5857 5859 5860 5861 5862 5864 5865 5866 5868 5869 5870 5872 5873 5874 5876 5878 5879 5881 5883 5886 5888 5891 5896 5895 5891 5890 5891 5892 5896 5897 5896 5898 5902 5905 5907 5908 5910 5913 5913 5913 5913 5911 5910 5911 5911 5911 5910 5910 5911 5911 5910 5906 5903 5903 5906 5907 5908 5907 5907 5908 5909 5909 5908 5909
5815 5816 5817 5818 5820 5822 5825 5827 5830 5832 5835 5837 5839 5841 5842 5845 5847 5849 5853 5855 5853 5853 5855 5856 5857 5859 5861 5863 5864 5864 5865 5867 5867 5869 5870 5871 5872 5874 5875 5877 5878 5880 5882 5885 5887 5892 5896 5895 5891 5889 5890 5891 5894 5895 5895 5898 5901 5903 5907 5910 5912 5914 5913 5913 5913 5911 5910 5910 5911 5910 5909 5909 5911 5911 5910 5906 5903 5904 5905 5906 5907 5907 5907 5907 5908 5909 5908 5908
5814 5815 5817 5818 5820 5822 5825 5827 5830 5832 5835 5837 5839 5841 5841 5843 5845 5847 5851 5853 5853 5853 5855 5856 5858 5860 5862 5865 5865 5864 5865 5867 5867 5869 5870 5871 5872 5873 5875 5876 5877 5880 5881 5882 5884 5888 5891 5892 5891 5889 5889 5889 5891 5893 5894 5897 5900 5903 5906 5907 5909 5911 5910 5910 5910 5909 5909 5909 5910 5910 5909 5909 5911 5911 5909 5906 5904 5904 5905 5905 5906 5905 5905 5906 5906 5908 5909 5908
5814 5815 5817 5818 5820 5823 5825 5827 5830 5832 5835 5837 5839 5841 5843 5844 5845 5847 5849 5851 5853 5854 5855 5858 5860 5861 5863 5866 5866 5865 5866 5867 5867 5868 5870 5872 5873 5873 5874 5875 5876 5878 5880 5881 5883 5886 5886 5889 5891 5889 5887 5888 5889 5891 5893 5895 5897 5902 5904 5903 5905 5908 5906 5905 5907 5908 5908 5908 5909 5910 5909 5908 5910 5910 5908 5907 5905 5905 5904 5904 5904 5904 5904 5905 5907 5909 5910 5909
5815 5816 5817 5819 5821 5823 5825 5828 5830 5832 5835 5836 5838 5840 5842 5845 5846 5847 5848 5850 5853 5855 5857 5860 5862 5861 5864 5867 5867 5866 5867 5869 5869 5869 5871 5872 5872 5873 5873 5874 5875 5877 5878 5880 5884 5886 5886 5889 5892 5889 5887 5887 5888 5890 5892 5894 5895 5898 5900 5901 5903 5904 5904 5903 5905 5907 5907 5906 5908 5909 5908 5907 5908 5908 5907 5908 5907 5905 5903 5902 5903 5905 5905 5905 5907 5909 5910 5910
5815 5816 5817 5819 5821 5823 5826 5828 5830 5832 5834 5836 5839 5840 5842 5845 5847 5848 5848 5849 5853 5856 5859 5863 5863 5862 5865 5867 5868 5866 5867 5870 5871 5870 5870 5871 5872 5873 5873 5873 5875 5876 5877 5879 5882 5884 5886 5888 5890 5890 5888 5888 5889 5890 5891 5894 5896 5897 5898 5900 5901 5902 5903 5904 5904 5905 5905 5905 5906 5907 5907 5907 5908 5908 5907 5906 5906 5903 5902 5901 5901 5903 5904 5904 5905 5907 5908 5908
5816 5818 5818 5819 5822 5824 5826 5829 5830 5832 5834 5836 5839 5840 5841 5844 5846 5848 5849 5850 5852 5854 5858 5860 5862 5863 5866 5867 5868 5868 5867 5870 5872 5872 5870 5871 5873 5874 5873 5873 5875 5875 5876 5879 5880 5882 5885 5887 5889 5890 5890 5891 5892 5890 5890 5893 5897 5899 5899 5901 5903 5904 5905 5906 5905 5904 5903 5902 5904 5906 5906 5906 5907 5908 5906 5904 5904 5903 5902 5901 5900 5901 5902 5903 5903 5904 5905 5906
5817 5819 5819 5820 5822 5824 5827 5829 5830 5832 5834 5836 5839 5840 5840 5843 5846 5848 5850 5852 5853 5854 5857 5859 5861 5863 5865 5866 5868 5870 5868 5869 5872 5872 5871 5873 5875 5874 5872 5871 5873 5874 5875 5877 5878 5880 5882 5884 5887 5889 5891 5895 5896 5892 5891 5894 5898 5901 5901 5901 5903 5904 5906 5907 5905 5903 5901 5901 5903 5904 5905 5904 5904 5905 5904 5903 5904 5904 5904 5904 5903 5903 5904 5903 5902 5902 5902 5903
5819 5821 5821 5821 5823 5825 5827 5829 5831 5834 5835 5836 5839 5840 5841 5844 5848 5849 5850 5852 5853 5855 5856 5859 5861 5863 5864 5865 5867 5869 5868 5869 5871 5871 5872 5874 5873 5871 5871 5870 5872 5874 5875 5877 5879 5879 5880 5881 5884 5885 5888 5893 5895 5892 5892 5894 5897 5900 5900 5899 5901 5903 5903 5904 5903 5902 5900 5901 5902 5903 5903 5902 5902 5903 5904 5905 5905 5903 5904 5904 5903 5903 5904 5903 5902 5901 5901 5900
5821 5822 5821 5822 5824 5826 5827 5830 5832 5834 5836 5836 5837 5839 5842 5845 5848 5850 5851 5853 5854 5855 5856 5857 5859 5861 5863 5864 5865 5867 5866 5868 5870 5870 5872 5874 5871 5869 5870 5870 5871 5874 5876 5878 5879 5879 5879 5880 5882 5883 5885 5889 5891 5890 5890 5891 5894 5898 5898 5897 5898 5899 5899 5899 5900 5900 5900 5899 5900 5901 5901 5901 5901 5903 5903 5904 5903 5902 5902 5902 5901 5902 5904 5903 5903 5902 5901 5900
5823 5823 5822 5822 5824 5826 5829 5832 5833 5834 5836 5837 5837 5838 5842 5846 5848 5849 5851 5853 5854 5855 5856 5857 5858 5860 5862 5862 5864 5865 5865 5867 5870 5870 5871 5873 5870 5868 5869 5870 5872 5874 5874 5876 5876 5876 5878 5880 5881 5883 5883 5885 5887 5888 5888 5888 5890 5893 5894 5894 5894 5895 5896 5897 5898 5899 5899 5898 5899 5899 5900 5901 5901 5902 5903 5902 5902 5901 5900 5899 5899 5902 5905 5905 5904 5904 5903 5902
5823 5824 5823 5823 5825 5827 5829 5832 5834 5836 5838 5839 5839 5840 5842 5846 5849 5850 5851 5854 5855 5856 5857 5858 5858 5860 5861 5862 5863 5864 5865 5866 5868 5868 5870 5872 5869 5868 5868 5869 5870 5872 5871 5873 5874 5875 5877 5879 5880 5881 5882 5883 5885 5886 5886 5887 5887 5889 5890 5891 5892 5893 5894 5895 5897 5899 5898 5898 5898 5898 5899 5901 5901 5901 5902 5901 5901 5900 5897 5896 5899 5902 5905 5905 5905 5904 5904 5903
5824 5824 5825 5826 5826 5828 5830 5832 5835 5837 5838 5839 5841 5842 5843 5846 5850 5851 5852 5854 5856 5857 5858 5859 5860 5860 5861 5862 5862 5864 5865 5866 5866 5867 5869 5870 5868 5867 5868 5868 5868 5870 5870 5872 5874 5875 5876 5877 5878 5879 5881 5882 5884 5885 5886 5886 5887 5888 5888 5889 5890 5892 5893 5894 5895 5897 5896 5897 5898 5897 5897 5899 5899 5899 5899 5899 5899 5896 5894 5896 5900 5902 5902 5903 5903 5903 5903 5902
5826 5826 5827 5827 5827 5829 5831 5832 5835 5837 5838 5840 5842 5842 5843 5847 5851 5852 5854 5855 5856 5857 5858 5859 5861 5861 5862 5862 5862 5863 5865 5866 5866 5866 5868 5869 5868 5867 5868 5868 5868 5869 5870 5871 5873 5873 5875 5876 5877 5878 5880 5882 5883 5885 5886 5886 5887 5888 5888 5888 5889 5890 5892 5892 5894 5895 5896 5896 5896 5896 5895 5895 5896 5895 5895 5896 5896 5894 5895 5898 5900 5900 5900 5900 5900 5900 5900 5899
5827 5828 5829 5829 5829 5830 5831 5833 5836 5837 5838 5840 5842 5842 5844 5848 5850 5851 5852 5854 5855 5856 5857 5858 5861 5862 5862 5862 5862 5863 5864 5865 5866 5866 5868 5869 5869 5868 5868 5868 5869 5869 5870 5871 5872 5873 5875 5876 5876 5877 5879 5881 5882 5884 5886 5886 5887 5888 5888 5888 5889 5891 5891 5891 5892 5893 5894 5895 5896 5896 5893 5891 5893 5893 5892 5895 5896 5895 5895 5897 5897 5898 5899 5899 5898 5899 5898 5897
5828 5829 5831 5831 5831 5832 5833 5836 5837 5837 5838 5840 5842 5845 5847 5848 5850 5850 5851 5853 5855 5856 5858 5860 5861 5862 5862 5862 5861 5862 5863 5864 5865 5865 5867 5868 5868 5867 5868 5868 5869 5870 5870 5871 5872 5873 5875 5876 5876 5877 5878 5879 5881 5883 5884 5885 5886 5887 5887 5887 5888 5890 5890 5889 5889 5889 5890 5891 5892 5891 5888 5887 5890 5892 5892 5893 5894 5892 5892 5894 5895 5897 5898 5898 5898 5898 5897 5896
5828 5829 5831 5832 5833 5833 5835 5837 5837 5837 5839 5841 5843 5846 5848 5849 5851 5851 5851 5853 5855 5857 5859 5860 5860 5860 5861 5861 5861 5862 5862 5863 5864 5865 5866 5866 5865 5866 5868 5868 5869 5871 5871 5871 5872 5873 5874 5875 5876 5876 5877 5878 5879 5881 5882 5884 5884 5885 5886 5886 5887 5888 5889 5888 5886 5885 5886 5887 5887 5886 5885 5884 5887 5890 5891 5891 5890 5890 5891 5894 5896 5896 5896 5896 5897 5896 5896 5895
5827 5829 5831 5832 5833 5833 5835 5838 5837 5838 5841 5844 5844 5846 5848 5850 5851 5851 5852 5854 5856 5857 5858 5858 5858 5859 5860 5861 5861 5861 5862 5863 5863 5864 5865 5865 5865 5867 5868 5868 5870 5872 5872 5871 5872 5873 5873 5874 5875 5875 5875 5876 5877 5879 5880 5882 5882 5884 5885 5885 5885 5886 5887 5885 5881 5882 5885 5886 5885 5886 5886 5885 5885 5885 5884 5886 5889 5890 5891 5893 5895 5894 5894 5893 5893 5894 5894 5894